Location: Pasquarelli
(41.0167°N, 14.7500°E)
Time: 15:06:18
(UTC+00:00)

Daily predictions for brighter satellites

Satellite Brightness Start Highest point End
(mag) Time Altitude Azimuth Time Altitude Azimuth Time Altitude Azimuth
Cosmos 1818 3.9 19:05:26 10° S 19:10:34 45° ESE 19:15:43 10° NE
ARGOS 4.3 19:07:21 10° S 19:12:29 44° W 19:17:41 10° NNW
SL-16 R/B 2.5 19:07:28 10° SSW 19:13:08 78° WNW 19:18:50 10° NNE
Resurs 01 Rocket 2.0 19:09:09 10° SE 19:13:23 47° ENE 19:17:37 10° N
CZ-2C R/B 2.8 19:09:40 10° NNE 19:15:05 83° WNW 19:20:22 10° SSW
MetOp-A 4.3 19:11:49 10° S 19:17:11 79° WSW 19:22:34 10° NNW
Cosmos 2150 Rocket 4.3 19:17:24 10° NNW 19:22:35 69° WSW 19:27:47 10° S
Cosmos 2058 Rocket 4.3 19:18:55 10° NNW 19:23:13 45° W 19:27:28 10° SSW
USA 215 3.8 19:17:53 10° ENE 19:23:47 35° SE 19:29:37 10° S
USA 186 4.4 19:21:28 10° SW 19:24:03 21° W 19:26:37 10° NW
GEOS 3 Rocket 4.0 19:20:52 10° NE 19:26:01 44° ESE 19:31:06 10° SSW
ATLAS 5 CENTAUR R/B 1.6 19:22:29 10° SSW 19:26:23 50° ESE 19:30:41 10° NE
ATLAS CENTAUR R/B 2.6 19:25:13 10° WNW 19:27:10 26° SW 19:30:20 10° SSE
Cosmos 1844 Rocket 3.5 19:26:47 10° N 19:31:58 37° ENE 19:36:36 12° SE
USA 245 4.3 19:30:59 13° ESE 19:33:19 27° ENE 19:36:39 10° N
H-2A ROCKET BODY 3.9 19:31:05 10° SW 19:35:19 29° SSE 19:48:09 10° ESE
Cosmos 1758 Rocket 4.0 19:31:29 10° SSE 19:35:43 43° E 19:40:00 10° NNE
Meteor 2-10 Rocket 3.6 19:32:13 10° N 19:37:19 65° E 19:42:30 10° SSE
Cosmos 1626 Rocket 4.1 19:32:57 10° SSW 19:37:20 63° W 19:41:47 10° N
Cosmos 1400 Rocket 3.9 19:36:08 10° NNE 19:39:36 28° ENE 19:42:04 15° SE
Lacrosse 5 rocket 4.5 19:38:48 10° NW 19:40:54 13° NNW 19:42:55 10° N
Spot 2 Rocket 4.0 19:36:33 13° SE 19:40:54 46° ENE 19:45:46 10° N
BREEZE-M DEB (TANK) 3.8 19:34:05 10° SW 19:41:49 36° SSE 19:44:34 10° E
OAO 3 Rocket 3.8 19:37:56 10° WSW 19:42:30 40° S 19:46:11 15° ESE
Cosmos 1745 Rocket 4.0 19:39:17 10° S 19:45:26 80° E 19:51:43 10° N
Landsat 7 4.3 19:42:56 14° SE 19:46:41 46° ENE 19:51:14 10° N
Cosmos 1125 Rocket 4.0 19:47:40 10° NNW 19:52:50 59° WSW 19:57:59 10° S
Meteor 1-21 Rocket 4.5 19:48:41 10° SSW 19:54:34 80° W 20:00:32 10° N
SPOT 1/Viking Rocket 4.0 19:51:15 16° SE 19:55:03 47° ENE 20:00:00 10° N
Cosmos 1953 Rocket 4.1 19:56:04 18° SSE 19:58:51 40° E 20:02:55 10° NNE
Cosmos 2322 Rocket 3.7 19:55:20 10° SW 20:00:33 39° WNW 20:05:50 10° N
VEP-3 4.1 19:56:38 10° SW 20:00:52 21° S 20:03:43 17° SE
Alouette 2 Rocket 4.0 19:58:54 10° N 20:02:46 51° ENE 20:06:10 20° SSE
Cosmos 1328 3.7 20:01:46 13° S 20:05:13 74° E 20:09:11 10° NNE
OAO 2 Rocket 3.9 20:01:04 10° WSW 20:06:02 42° S 20:09:32 18° ESE
SAR-Lupe-2 3.6 20:08:02 10° NNE 20:11:35 59° E 20:13:37 23° S
Cosmos 1455 2.7 20:10:06 10° NNW 20:13:53 58° W 20:16:46 16° S
Cosmos 1825 Rocket 3.6 20:10:15 11° S 20:14:31 86° W 20:19:00 10° N
Cosmos 1703 3.6 20:15:23 10° SSW 20:19:09 63° W 20:23:01 10° N
COSMOS 2428 2.9 20:15:32 14° S 20:20:14 51° ESE 20:25:43 10° NE
ATLAS CENTAUR R/B 2.9 20:17:44 10° N 20:20:37 21° NE 20:22:16 16° E
Cosmos 2322 3.7 20:18:24 10° SSW 20:24:08 88° WNW 20:29:54 10° NNE
Cosmos 1844 3.7 20:20:26 10° NNW 20:26:14 83° ENE 20:29:32 26° SSE
Delta 2 Rocket 3.7 20:25:24 10° WSW 20:28:10 30° SSW 20:28:10 30° SSW
CZ-4B DEB 4.3 20:28:15 41° SSE 20:29:18 80° ENE 20:32:40 10° N
Cosmos 1709 Rocket 4.1 20:24:14 10° S 20:30:30 83° W 20:36:54 10° N
NOSS 3-3 (A) 3.8 20:27:06 10° SSW 20:32:48 73° ESE 20:39:12 10° NE
NOSS 3-3 (C) 3.8 20:27:12 10° SSW 20:32:55 73° ESE 20:39:19 10° NE
Terra 2.3 20:31:40 29° SE 20:33:39 46° ENE 20:38:12 10° N
Cosmos 2237 Rocket 3.3 20:33:11 24° ESE 20:34:02 25° ESE 20:38:35 10° NE
CARTOSAT-1 3.5 20:32:57 33° SSE 20:34:48 75° ENE 20:39:07 10° N
Cosmos 2333 4.4 20:30:20 10° SSW 20:35:57 74° WNW 20:41:40 10° NNE
Cosmos 2219 Rocket 2.1 20:30:44 10° SSW 20:36:18 78° ESE 20:41:55 10° NNE
Atlas Centaur 2 3.3 20:31:11 10° WSW 20:36:37 33° S 20:38:47 27° SSE
IGS 5A 4.2 20:35:34 21° SSW 20:38:03 46° W 20:42:05 10° NNW
Cosmos 2360 Rocket 3.7 20:33:16 10° SW 20:38:27 37° WNW 20:43:42 10° N
Cosmos 1538 Rocket 4.0 20:35:01 18° S 20:39:05 75° ESE 20:44:26 10° NNE
IRIS 4.1 20:40:57 10° W 20:43:18 57° W 20:43:18 57° W
DELTA 2 R/B (1) 3.8 20:39:16 10° SW 20:44:34 45° SSE 20:49:12 13° E
BREEZE-M (TANK) 4.0 20:42:01 18° SSW 20:45:06 51° SE 20:59:03 10° ENE
Cosmos 2184 Rocket 4.3 20:42:26 30° SE 20:45:11 48° E 20:51:11 10° NNE
Cosmos 2333 Rocket 2.2 20:40:26 10° SSW 20:46:06 82° WNW 20:51:52 10° NNE
Resurs 01 Rocket 4.1 20:47:30 10° SW 20:50:06 15° W 20:52:44 10° NW
Cosmos 1315 Rocket 2.8 20:49:11 10° N 20:53:17 74° ENE 20:54:13 51° SSE
ATLAS 2AS CENTAUR R/B 4.2 20:46:55 10° NNW 20:53:32 31° NE 20:59:01 13° E
Cosmos-2242 4.4 20:52:41 10° NNW 20:56:38 34° W 20:59:06 19° SW
ERS-1 Rocket 3.3 20:56:52 31° S 20:59:13 62° WSW 21:04:14 10° NNW
Cosmos 2221 2.8 20:57:29 10° N 21:01:47 52° E 21:02:29 46° ESE
Cosmos 1892 3.3 21:07:02 41° ENE 21:07:02 41° ENE 21:10:17 10° NNE
USA 215 3.6 21:00:32 10° NE 21:07:02 67° NW 21:13:29 10° WSW
Cosmos 2278 Rocket 2.7 21:05:40 10° NNW 21:11:11 50° ENE 21:13:09 35° ESE
ATLAS 5 CENTAUR R/B 4.3 21:08:13 10° W 21:11:22 20° NW 21:14:47 10° N
Cosmos 158 Rocket 4.2 21:13:11 42° ESE 21:13:21 42° ESE 21:17:57 10° NNE
Cosmos 1844 Rocket 4.0 21:10:55 10° NW 21:15:41 30° WSW 21:18:16 21° SW
SPOT 5 3.6 21:13:56 31° SSW 21:15:58 49° W 21:20:42 10° NNW
SL-16 R/B 3.7 21:18:55 20° E 21:18:55 20° E 21:22:29 10° NE
Cosmos 2154 Rocket 4.0 21:23:04 43° SSE 21:24:59 64° E 21:31:07 10° NNE
Cosmos 2058 2.7 21:24:59 73° ESE 21:25:07 74° E 21:29:16 10° NNE
Nadezhda 3 Rocket 4.2 21:20:58 10° N 21:27:15 59° E 21:29:11 42° SE
Cosmos 1408 3.6 21:29:06 36° NE 21:29:06 36° NE 21:31:37 10° NNE
Meteor 2-17 Rocket 4.3 21:27:25 40° S 21:29:47 89° W 21:35:52 10° N
In-Cosmos 22 Rocket 4.0 21:29:55 48° S 21:31:26 88° W 21:36:47 10° N
Cosmos 2074 Rocket 4.1 21:29:15 31° SSW 21:32:20 70° W 21:38:33 10° N
Cosmos 1076 Rocket 3.3 21:36:08 82° SSE 21:36:19 87° E 21:40:37 10° N
Cosmos 1680 Rocket 3.4 21:35:41 55° S 21:36:52 81° ESE 21:42:13 10° NNE
USA 267 3.5 21:34:05 29° ESE 21:37:35 67° NE 21:44:06 10° NW
TSX-5 3.9 21:34:02 10° NNW 21:37:35 68° NE 21:37:35 68° NE
Cosmos 2151 3.6 21:47:18 44° ENE 21:47:18 44° ENE 21:50:53 10° NNE
Cosmos 2084 3.9 21:43:56 10° NW 21:48:05 52° WSW 21:48:05 52° WSW
EO 1 Delta rocket 4.3 21:46:15 10° NNE 21:51:29 73° E 21:52:50 54° SSE
Cosmos 1825 2.9 21:58:08 49° NNE 21:58:08 49° NNE 22:01:03 10° NNE
ALOS 2 3.5 21:58:03 37° ENE 21:58:07 37° ENE 22:02:10 10° N
Cosmos 1980 4.1 21:56:55 32° SW 21:59:25 60° WNW 22:05:01 10° NNE
ATLAS CENTAUR R/B 2.8 21:56:18 10° NW 21:58:26 25° W 21:58:26 25° W
Cosmos 1151 Rocket 4.3 21:59:38 10° NNE 22:03:13 30° ENE 22:03:13 30° ENE
Cosmos 44 3.9 22:05:15 40° ENE 22:05:15 40° ENE 22:08:17 10° NE
Cosmos 1295 Rocket 4.5 22:06:31 49° SSW 22:08:13 75° W 22:14:21 10° N
Terra 3.8 22:10:34 17° WSW 22:11:37 18° W 22:14:54 10° NW
GP-B 3.7 22:07:33 10° NNE 22:11:23 46° ENE 22:11:23 46° ENE
Cosmos 962 Rocket 4.4 22:12:15 55° SSW 22:13:48 87° W 22:20:12 10° N
Cosmos 1624 Rocket 3.8 22:11:20 10° NNW 22:16:35 79° ENE 22:16:57 74° ESE
NOSS 3-4 (A) 3.8 22:10:06 10° NW 22:17:15 87° ENE 22:19:47 47° SE
NOSS 3-4 (C) 3.8 22:10:13 10° NW 22:17:22 86° NE 22:19:55 47° SE
Cosmos 2237 Rocket 3.0 22:14:58 27° WSW 22:17:46 46° WNW 22:23:16 10° NNE
Genesis I 4.3 22:18:36 39° WNW 22:18:49 39° NW 22:22:31 10° NNE
IRIDIUM 106 4.5 22:19:31 56° E 22:19:43 57° E 22:24:50 10° N
Cosmos 2344 3.6 22:16:02 26° SW 22:20:37 78° NW 22:28:32 10° NNE
Nimbus 7 Rocket 4.3 22:15:26 10° NNE 22:21:23 83° ESE 22:22:22 64° S
Atlas Centaur 2 4.4 22:19:52 10° WSW 22:21:21 15° WSW 22:21:21 15° WSW
DELTA 2 R/B (1) 3.6 22:25:11 10° W 22:36:22 10° E 22:36:23 10° E
Thor Agena Rocket 4.4 22:27:13 10° N 22:31:59 41° WNW 22:33:18 35° WSW
BREEZE-M DEB (TANK) 4.1 22:40:10 10° NW 22:41:21 18° NW 22:41:21 18° NW
Cosmos 1515 Rocket 4.3 22:39:30 10° N 22:43:15 44° ENE 22:43:15 44° ENE
Cosmos 1766 Rocket 4.0 22:44:24 58° NW 22:44:24 58° NW 22:48:22 10° N
Cosmos 1371 Rocket 4.4 22:39:10 10° NNW 22:44:15 51° WSW 22:44:15 51° WSW
ATLAS 2AS CENTAUR R/B 2.7 22:37:45 10° NW 22:45:08 69° WSW 22:46:25 58° S
Okean 3 Rocket 4.2 22:47:03 48° WNW 22:47:03 48° WNW 22:51:10 10° N
Gbstr 26 Del rocket 4.2 22:49:28 31° NE 22:49:28 31° NE 22:51:44 10° NE
Cosmos 1328 Rocket 3.9 22:46:47 10° N 22:50:25 62° NNW 22:50:25 62° NNW
Cosmos 2218 Rocket 4.0 22:50:54 60° SSW 22:52:07 79° W 22:58:28 10° N
Cosmos 864 Rocket 4.4 22:52:04 64° SSW 22:53:07 84° W 22:59:27 10° N
Cosmos 1606 3.9 22:49:34 10° NNW 22:52:19 40° NW 22:52:19 40° NW
Cosmos 2278 Rocket 3.7 22:50:32 10° NW 22:54:52 23° W 22:54:59 23° WSW
Cosmos 1943 4.4 22:56:06 29° E 22:56:06 29° E 23:00:40 10° NE
Cosmos 2297 3.5 22:51:02 10° NNW 22:56:47 82° WSW 22:57:11 76° SSW
Cosmos 2366 rocket 4.0 22:56:35 59° SW 22:57:48 75° W 23:04:11 10° N
Cosmos 2228 Rocket 4.1 22:55:07 10° N 22:59:19 38° ENE 22:59:19 38° ENE
Cosmos 1633 4.1 23:01:11 34° NNE 23:01:11 34° NNE 23:03:24 10° NNE
Cosmos 1420 Rocket 3.9 22:55:15 10° NNW 23:00:33 82° WSW 23:00:36 82° WSW
SL-16 R/B 2.6 23:00:46 46° WSW 23:02:02 55° WNW 23:07:38 10° NNE
Lacrosse 5 rocket 4.1 23:00:01 10° NNW 23:02:30 16° NNE 23:04:54 10° ENE
Cosmos 1943 Rocket 2.7 22:57:53 10° NNW 23:03:28 54° ENE 23:04:40 45° ESE
Cosmos 1821 Rocket 4.2 23:05:53 48° ESE 23:06:45 52° E 23:12:39 10° NNE
Cosmos 2056 Rocket 4.4 23:03:11 10° NW 23:07:58 36° W 23:07:58 36° W
YAOGAN 11 4.3 23:09:09 67° N 23:09:09 67° N 23:13:03 10° N
BREEZE-M DEB (TANK) 4.2 22:57:16 10° SW 23:11:45 68° SSE 23:16:07 10° ENE
Cosmos 1743 Rocket 3.9 23:12:36 60° NNE 23:12:36 60° NNE 23:16:15 10° N
Cosmos 1048 Rocket 3.9 23:19:32 85° SSE 23:19:40 88° ESE 23:24:59 10° NNE
USA 267 4.0 23:21:24 35° WSW 23:21:24 35° WSW 23:26:45 10° WNW
Meteor 2-3 Rocket 4.0 23:21:02 50° WSW 23:21:47 54° WNW 23:27:22 10° N
Cosmos 332 Rocket 3.8 23:17:04 10° NNW 23:21:28 73° NW 23:21:28 73° NW
Helios 1A 3.9 23:24:53 42° NW 23:24:53 42° NW 23:28:00 10° NNW
Meteor 1-10 Rocket 4.5 23:29:21 10° N 23:34:51 57° ENE 23:35:50 50° ESE
Cosmos 1452 Rocket 3.6 23:30:08 10° NNW 23:35:06 59° W 23:35:06 59° W
SL-16 R/B 4.2 23:31:34 13° ESE 23:35:57 27° ENE 23:41:03 10° N
CZ-4C R/B 3.6 23:29:39 10° NNW 23:36:44 52° NE 23:44:47 10° SE
Cosmos 1603 3.5 23:36:25 73° SSE 23:36:54 80° ESE 23:42:38 10° NNE
PSLV R/B 3.8 23:32:52 10° N 23:36:34 66° NNW 23:36:34 66° NNW
Meteor 2-6 Rocket 4.1 23:31:49 10° N 23:37:17 73° ENE 23:37:54 66° SE
COSMOS 2455 2.7 23:31:24 10° NNW 23:37:29 86° WSW 23:38:24 66° SSE
Cosmos 1110 Rocket 4.4 23:34:05 10° NNW 23:39:19 59° ENE 23:40:16 51° ESE
Cosmos 1269 Rocket 4.4 23:39:59 49° ESE 23:40:08 50° ESE 23:45:14 10° NNE
Cosmos 1500 Rocket 4.2 23:44:49 46° WNW 23:44:49 46° WNW 23:48:42 10° N
Cosmos 1727 Rocket 4.4 23:41:15 10° NNW 23:47:10 47° W 23:48:04 44° WSW
Resurs 1-4 Rocket 3.5 23:43:21 10° NE 23:47:45 26° E 23:48:44 24° ESE
Cosmos 2369 Rocket 2.1 23:42:22 10° NNW 23:47:59 85° ENE 23:48:49 66° SSE
ISS -1.4 23:51:00 20° ENE 23:51:00 20° ENE 23:52:13 10° ENE
SeaSat 1 3.1 23:46:40 10° NE 23:51:20 42° ESE 23:51:20 42° ESE
Helios 1B rocket 3.0 23:51:48 10° N 23:55:23 53° NW 23:55:23 53° NW
